Time,TemperatureF,DewpointF,PressureIn,WindDirection,WindDirectionDegrees,WindSpeedMPH,WindSpeedGustMPH,Humidity,HourlyPrecipIn,Conditions,Clouds,dailyrainin,SoftwareType,DateUTC
2013-03-23 00:03:00,67.0,64.0,30.02,NNW,341,1.0,-999.0,90,-99.99,,,-99.99,,2013-03-23 10:03:00,
2013-03-23 00:12:00,67.0,64.0,30.02,NNW,341,1.0,-999.0,90,-99.99,,,-99.99,,2013-03-23 10:12:00,
2013-03-23 00:23:00,67.0,64.0,30.02,NNE,17,1.0,-999.0,90,-99.99,,,-99.99,,2013-03-23 10:23:00,
2013-03-23 00:33:00,67.0,64.0,30.02,NNE,17,0.0,-999.0,89,-99.99,,,-99.99,,2013-03-23 10:33:00,
2013-03-23 00:42:00,67.0,64.0,30.02,NNE,17,0.0,-999.0,89,-99.99,,,-99.99,,2013-03-23 10:42:00,
2013-03-23 00:52:00,67.0,63.0,30.02,NNE,18,0.0,-999.0,87,-99.99,,,-99.99,,2013-03-23 10:52:00,
2013-03-23 01:02:00,67.0,63.0,30.02,NNE,18,0.0,-999.0,87,-99.99,,,-99.99,,2013-03-23 11:02:00,
2013-03-23 01:12:00,67.0,63.0,30.02,NNE,18,0.0,-999.0,87,-99.99,,,-99.99,,2013-03-23 11:12:00,
2013-03-23 01:22:00,66.0,62.0,30.01,NNE,19,0.0,-999.0,86,-99.99,,,-99.99,,2013-03-23 11:22:00,
2013-03-23 01:32:00,67.0,63.0,30.01,NNE,19,0.0,-999.0,86,-99.99,,,-99.99,,2013-03-23 11:32:00,
2013-03-23 01:42:00,67.0,63.0,30.01,NNE,19,0.0,-999.0,86,-99.99,,,-99.99,,2013-03-23 11:42:00,
2013-03-23 01:51:00,66.0,62.0,30.00,NNE,19,0.0,-999.0,86,-99.99,,,-99.99,,2013-03-23 11:51:00,
2013-03-23 02:02:00,66.0,62.0,29.99,NNE,19,0.0,-999.0,87,-99.99,,,-99.99,,2013-03-23 12:02:00,
2013-03-23 02:12:00,66.0,62.0,29.99,NNE,19,0.0,-999.0,87,-99.99,,,-99.99,,2013-03-23 12:12:00,
2013-03-23 02:22:00,66.0,63.0,30.00,NNE,19,0.0,-999.0,89,-99.99,,,-99.99,,2013-03-23 12:22:00,
2013-03-23 02:32:00,66.0,63.0,29.99,ENE,72,0.0,-999.0,90,-99.99,,,-99.99,,2013-03-23 12:32:00,
2013-03-23 02:42:00,66.0,63.0,29.99,ENE,72,0.0,-999.0,90,-99.99,,,-99.99,,2013-03-23 12:42:00,
2013-03-23 02:52:00,66.0,63.0,29.98,ENE,72,0.0,-999.0,89,-99.99,,,-99.99,,2013-03-23 12:52:00,
2013-03-23 03:02:00,66.0,63.0,29.99,ENE,72,0.0,-999.0,89,-99.99,,,-99.99,,2013-03-23 13:02:00,
2013-03-23 03:11:00,66.0,63.0,29.99,ENE,72,0.0,-999.0,89,-99.99,,,-99.99,,2013-03-23 13:11:00,
2013-03-23 03:21:00,66.0,63.0,29.99,ENE,72,1.0,-999.0,90,-99.99,,,-99.99,,2013-03-23 13:21:00,
2013-03-23 03:32:00,65.0,62.0,29.98,ENE,72,0.0,-999.0,89,-99.99,,,-99.99,,2013-03-23 13:32:00,
2013-03-23 03:42:00,65.0,62.0,29.98,ENE,72,0.0,-999.0,89,-99.99,,,-99.99,,2013-03-23 13:42:00,
2013-03-23 03:52:00,65.0,62.0,29.98,ENE,72,0.0,-999.0,90,-99.99,,,-99.99,,2013-03-23 13:52:00,
2013-03-23 04:02:00,65.0,62.0,29.98,ENE,72,1.0,-999.0,90,-99.99,,,-99.99,,2013-03-23 14:02:00,
2013-03-23 04:12:00,65.0,62.0,29.98,ENE,72,1.0,-999.0,90,-99.99,,,-99.99,,2013-03-23 14:12:00,
2013-03-23 04:22:00,65.0,61.0,29.98,NE,55,2.0,-999.0,88,-99.99,,,-99.99,,2013-03-23 14:22:00,
2013-03-23 04:32:00,65.0,61.0,29.97,NE,55,1.0,-999.0,88,-99.99,,,-99.99,,2013-03-23 14:32:00,
2013-03-23 04:42:00,65.0,61.0,29.97,NE,55,1.0,-999.0,88,-99.99,,,-99.99,,2013-03-23 14:42:00,
2013-03-23 04:52:00,64.0,60.0,29.97,NE,55,1.0,-999.0,88,-99.99,,,-99.99,,2013-03-23 14:52:00,
2013-03-23 05:02:00,64.0,61.0,29.97,NE,55,0.0,-999.0,90,-99.99,,,-99.99,,2013-03-23 15:02:00,
2013-03-23 05:12:00,64.0,61.0,29.97,NE,55,0.0,-999.0,90,-99.99,,,-99.99,,2013-03-23 15:12:00,
2013-03-23 05:22:00,64.0,61.0,29.97,NE,55,1.0,-999.0,89,-99.99,,,-99.99,,2013-03-23 15:22:00,
2013-03-23 05:33:00,65.0,61.0,29.97,NE,55,0.0,-999.0,88,-99.99,,,-99.99,,2013-03-23 15:33:00,
2013-03-23 05:43:00,65.0,61.0,29.97,NE,55,0.0,-999.0,88,-99.99,,,-99.99,,2013-03-23 15:43:00,
2013-03-23 05:52:00,65.0,62.0,29.98,NE,55,0.0,-999.0,89,-99.99,,,-99.99,,2013-03-23 15:52:00,
2013-03-23 06:03:00,65.0,62.0,29.99,ENE,57,0.0,-999.0,89,-99.99,,,-99.99,,2013-03-23 16:03:00,
2013-03-23 06:12:00,65.0,62.0,29.99,ENE,57,0.0,-999.0,89,-99.99,,,-99.99,,2013-03-23 16:12:00,
2013-03-23 06:22:00,65.0,61.0,29.99,ENE,73,0.0,-999.0,88,-99.99,,,-99.99,,2013-03-23 16:22:00,
2013-03-23 06:32:00,65.0,61.0,30.00,East,84,0.0,-999.0,88,-99.99,,,-99.99,,2013-03-23 16:32:00,
2013-03-23 06:42:00,65.0,61.0,30.00,East,84,0.0,-999.0,88,-99.99,,,-99.99,,2013-03-23 16:42:00,
2013-03-23 06:52:00,65.0,61.0,30.00,East,86,1.0,-999.0,87,-99.99,,,-99.99,,2013-03-23 16:52:00,
2013-03-23 07:02:00,65.0,60.0,30.01,ENE,70,0.0,-999.0,85,-99.99,,,-99.99,,2013-03-23 17:02:00,
2013-03-23 07:11:00,65.0,61.0,30.01,ENE,66,1.0,-999.0,86,-99.99,,,-99.99,,2013-03-23 17:11:00,
2013-03-23 07:22:00,65.0,61.0,30.01,ENE,66,1.0,-999.0,86,-99.99,,,-99.99,,2013-03-23 17:22:00,
2013-03-23 07:32:00,66.0,62.0,30.02,ENE,66,0.0,-999.0,86,-99.99,,,-99.99,,2013-03-23 17:32:00,
2013-03-23 07:42:00,66.0,62.0,30.02,ENE,66,0.0,-999.0,86,-99.99,,,-99.99,,2013-03-23 17:42:00,
2013-03-23 07:52:00,66.0,62.0,30.03,ENE,66,0.0,-999.0,87,-99.99,,,-99.99,,2013-03-23 17:52:00,
2013-03-23 08:02:00,67.0,63.0,30.03,ENE,66,0.0,-999.0,87,-99.99,,,-99.99,,2013-03-23 18:02:00,
2013-03-23 08:12:00,67.0,63.0,30.03,ENE,66,0.0,-999.0,87,-99.99,,,-99.99,,2013-03-23 18:12:00,
2013-03-23 08:22:00,68.0,63.0,30.03,ENE,66,1.0,-999.0,85,-99.99,,,-99.99,,2013-03-23 18:22:00,
2013-03-23 08:32:00,69.0,64.0,30.04,ENE,66,0.0,-999.0,85,-99.99,,,-99.99,,2013-03-23 18:32:00,
2013-03-23 08:42:00,69.0,64.0,30.04,ENE,66,0.0,-999.0,85,-99.99,,,-99.99,,2013-03-23 18:42:00,
2013-03-23 08:52:00,70.0,65.0,30.04,ESE,107,0.0,-999.0,83,-99.99,,,-99.99,,2013-03-23 18:52:00,
2013-03-23 09:02:00,71.0,66.0,30.04,SW,217,1.0,-999.0,83,-99.99,,,-99.99,,2013-03-23 19:02:00,
2013-03-23 09:12:00,71.0,66.0,30.04,SW,217,1.0,-999.0,83,-99.99,,,-99.99,,2013-03-23 19:12:00,
2013-03-23 09:22:00,71.0,65.0,30.04,SSW,207,1.0,-999.0,81,-99.99,,,-99.99,,2013-03-23 19:22:00,
2013-03-23 09:32:00,73.0,66.0,30.03,South,183,0.0,-999.0,79,-99.99,,,-99.99,,2013-03-23 19:32:00,
2013-03-23 09:42:00,73.0,66.0,30.03,South,183,0.0,-999.0,79,-99.99,,,-99.99,,2013-03-23 19:42:00,
2013-03-23 09:52:00,73.0,66.0,30.03,WSW,241,1.0,-999.0,79,-99.99,,,-99.99,,2013-03-23 19:52:00,
2013-03-23 10:02:00,73.0,66.0,30.03,SSW,197,1.0,-999.0,78,-99.99,,,-99.99,,2013-03-23 20:02:00,
2013-03-23 10:12:00,73.0,66.0,30.03,SSW,197,1.0,-999.0,78,-99.99,,,-99.99,,2013-03-23 20:12:00,
2013-03-23 10:22:00,74.0,67.0,30.04,NW,318,2.0,-999.0,79,-99.99,,,-99.99,,2013-03-23 20:22:00,
2013-03-23 10:32:00,75.0,65.0,30.03,North,355,4.0,-999.0,70,-99.99,,,-99.99,,2013-03-23 20:32:00,
2013-03-23 10:42:00,75.0,65.0,30.03,North,355,4.0,-999.0,70,-99.99,,,-99.99,,2013-03-23 20:42:00,
2013-03-23 10:52:00,74.0,65.0,30.03,NNW,329,5.0,-999.0,74,-99.99,,,-99.99,,2013-03-23 20:52:00,
2013-03-23 11:02:00,74.0,67.0,30.03,South,173,4.0,-999.0,78,-99.99,,,-99.99,,2013-03-23 21:02:00,
2013-03-23 11:12:00,74.0,67.0,30.03,South,173,4.0,-999.0,78,-99.99,,,-99.99,,2013-03-23 21:12:00,
2013-03-23 11:22:00,72.0,66.0,30.03,SSW,196,2.0,-999.0,81,-99.99,,,-99.99,,2013-03-23 21:22:00,
2013-03-23 11:32:00,72.0,66.0,30.03,NE,38,1.0,-999.0,81,-99.99,,,-99.99,,2013-03-23 21:32:00,
2013-03-23 11:43:00,72.0,66.0,30.03,NE,38,1.0,-999.0,81,-99.99,,,-99.99,,2013-03-23 21:43:00,
2013-03-23 11:53:00,73.0,67.0,30.02,NE,40,3.0,-999.0,81,-99.99,,,-99.99,,2013-03-23 21:53:00,
2013-03-23 12:02:00,73.0,67.0,30.02,North,360,3.0,-999.0,81,-99.99,,,-99.99,,2013-03-23 22:02:00,
2013-03-23 12:12:00,73.0,67.0,30.02,North,360,3.0,-999.0,81,-99.99,,,-99.99,,2013-03-23 22:12:00,
2013-03-23 12:22:00,72.0,66.0,30.01,North,5,5.0,-999.0,82,-99.99,,,-99.99,,2013-03-23 22:22:00,
2013-03-23 12:32:00,73.0,68.0,30.01,NNE,24,5.0,-999.0,83,-99.99,,,-99.99,,2013-03-23 22:32:00,
2013-03-23 12:42:00,73.0,68.0,30.01,NNE,24,5.0,-999.0,83,-99.99,,,-99.99,,2013-03-23 22:42:00,
2013-03-23 12:52:00,74.0,67.0,30.01,NE,34,6.0,-999.0,79,-99.99,,,-99.99,,2013-03-23 22:52:00,
2013-03-23 13:02:00,74.0,67.0,30.00,North,355,7.0,-999.0,79,-99.99,,,-99.99,,2013-03-23 23:02:00,
2013-03-23 13:12:00,74.0,67.0,30.00,North,355,7.0,-999.0,79,-99.99,,,-99.99,,2013-03-23 23:12:00,
2013-03-23 13:22:00,75.0,67.0,29.99,NNW,334,8.0,-999.0,76,-99.99,,,-99.99,,2013-03-23 23:22:00,
2013-03-23 13:32:00,75.0,67.0,29.98,NE,40,8.0,-999.0,75,-99.99,,,-99.99,,2013-03-23 23:32:00,
2013-03-23 13:42:00,75.0,67.0,29.98,NE,40,8.0,-999.0,75,-99.99,,,-99.99,,2013-03-23 23:42:00,
2013-03-23 13:52:00,75.0,67.0,29.98,NNW,340,9.0,-999.0,76,-99.99,,,-99.99,,2013-03-23 23:52:00,
2013-03-23 14:02:00,75.0,67.0,29.98,NNW,340,9.0,-999.0,76,-99.99,,,-99.99,,2013-03-24 00:02:00,
2013-03-23 14:12:00,75.0,67.0,29.98,NNW,340,9.0,-999.0,76,-99.99,,,-99.99,,2013-03-24 00:12:00,
2013-03-23 14:22:00,74.0,67.0,29.97,NNW,327,7.0,-999.0,79,-99.99,,,-99.99,,2013-03-24 00:22:00,
2013-03-23 14:32:00,73.0,66.0,29.97,NNW,340,6.0,-999.0,80,-99.99,,,-99.99,,2013-03-24 00:32:00,
2013-03-23 14:42:00,73.0,66.0,29.97,NNW,340,6.0,-999.0,80,-99.99,,,-99.99,,2013-03-24 00:42:00,
2013-03-23 14:52:00,72.0,67.0,29.96,North,5,6.0,-999.0,83,-99.99,,,-99.99,,2013-03-24 00:52:00,
2013-03-23 15:02:00,73.0,66.0,29.95,NW,312,8.0,-999.0,80,-99.99,,,-99.99,,2013-03-24 01:02:00,
2013-03-23 15:12:00,73.0,66.0,29.95,NW,312,8.0,-999.0,80,-99.99,,,-99.99,,2013-03-24 01:12:00,
2013-03-23 15:22:00,74.0,66.0,29.95,NNW,341,7.0,-999.0,77,-99.99,,,-99.99,,2013-03-24 01:22:00,
2013-03-23 15:32:00,75.0,67.0,29.95,NNW,333,5.0,-999.0,76,-99.99,,,-99.99,,2013-03-24 01:32:00,
2013-03-23 15:42:00,75.0,67.0,29.95,NNW,333,5.0,-999.0,76,-99.99,,,-99.99,,2013-03-24 01:42:00,
2013-03-23 15:52:00,74.0,66.0,29.94,North,355,8.0,-999.0,76,-99.99,,,-99.99,,2013-03-24 01:52:00,
2013-03-23 16:02:00,73.0,65.0,29.95,North,5,7.0,-999.0,77,-99.99,,,-99.99,,2013-03-24 02:02:00,
2013-03-23 16:12:00,73.0,65.0,29.95,North,5,7.0,-999.0,77,-99.99,,,-99.99,,2013-03-24 02:12:00,
2013-03-23 16:21:00,74.0,66.0,29.95,NW,319,7.0,-999.0,76,-99.99,,,-99.99,,2013-03-24 02:21:00,
2013-03-23 16:32:00,72.0,65.0,29.94,NW,323,9.0,-999.0,80,-99.99,,,-99.99,,2013-03-24 02:32:00,
2013-03-23 16:42:00,72.0,65.0,29.94,NW,323,9.0,-999.0,80,-99.99,,,-99.99,,2013-03-24 02:42:00,
2013-03-23 16:52:00,72.0,65.0,29.93,NNW,336,7.0,-999.0,80,-99.99,,,-99.99,,2013-03-24 02:52:00,
2013-03-23 17:02:00,71.0,65.0,29.94,NNE,19,7.0,-999.0,80,-99.99,,,-99.99,,2013-03-24 03:02:00,
2013-03-23 17:12:00,71.0,65.0,29.94,NNE,19,7.0,-999.0,80,-99.99,,,-99.99,,2013-03-24 03:12:00,
2013-03-23 17:22:00,72.0,65.0,29.95,NNE,14,6.0,-999.0,79,-99.99,,,-99.99,,2013-03-24 03:22:00,
2013-03-23 17:33:00,71.0,66.0,29.96,NNW,346,5.0,-999.0,83,-99.99,,,-99.99,,2013-03-24 03:33:00,
2013-03-23 17:42:00,71.0,66.0,29.96,NNW,346,5.0,-999.0,83,-99.99,,,-99.99,,2013-03-24 03:42:00,
2013-03-23 17:52:00,70.0,67.0,29.96,NNW,346,5.0,-999.0,90,-99.99,,,-99.99,,2013-03-24 03:52:00,
2013-03-23 18:02:00,70.0,67.0,29.96,NNW,346,5.0,-999.0,90,-99.99,,,-99.99,,2013-03-24 04:02:00,
2013-03-23 18:12:00,70.0,67.0,29.96,NNW,346,5.0,-999.0,90,-99.99,,,-99.99,,2013-03-24 04:12:00,
2013-03-23 18:22:00,69.0,67.0,29.97,North,355,2.0,-999.0,92,-99.99,,,-99.99,,2013-03-24 04:22:00,
2013-03-23 18:32:00,69.0,67.0,29.98,NW,309,2.0,-999.0,92,-99.99,,,-99.99,,2013-03-24 04:32:00,
2013-03-23 18:42:00,69.0,67.0,29.98,NW,309,2.0,-999.0,92,-99.99,,,-99.99,,2013-03-24 04:42:00,
2013-03-23 18:52:00,70.0,68.0,29.99,WSW,257,1.0,-999.0,92,-99.99,,,-99.99,,2013-03-24 04:52:00,
2013-03-23 19:02:00,70.0,68.0,30.00,WSW,247,1.0,-999.0,92,-99.99,,,-99.99,,2013-03-24 05:02:00,
2013-03-23 19:12:00,70.0,68.0,30.00,WSW,247,1.0,-999.0,92,-99.99,,,-99.99,,2013-03-24 05:12:00,
2013-03-23 19:22:00,69.0,67.0,30.00,SW,229,2.0,-999.0,94,-99.99,,,-99.99,,2013-03-24 05:22:00,
2013-03-23 19:32:00,69.0,68.0,30.01,WSW,252,3.0,-999.0,96,-99.99,,,-99.99,,2013-03-24 05:32:00,
2013-03-23 19:42:00,69.0,68.0,30.01,WSW,252,3.0,-999.0,96,-99.99,,,-99.99,,2013-03-24 05:42:00,
2013-03-23 19:52:00,68.0,67.0,30.01,ESE,106,1.0,-999.0,96,-99.99,,,-99.99,,2013-03-24 05:52:00,
2013-03-23 20:02:00,67.0,66.0,30.02,ENE,60,1.0,-999.0,96,-99.99,,,-99.99,,2013-03-24 06:02:00,
2013-03-23 20:12:00,67.0,66.0,30.02,ENE,60,1.0,-999.0,96,-99.99,,,-99.99,,2013-03-24 06:12:00,
2013-03-23 20:21:00,66.0,65.0,30.02,ESE,111,2.0,-999.0,96,-99.99,,,-99.99,,2013-03-24 06:21:00,
2013-03-23 20:32:00,66.0,65.0,30.03,ESE,105,3.0,-999.0,96,-99.99,,,-99.99,,2013-03-24 06:32:00,
2013-03-23 20:42:00,66.0,65.0,30.03,ESE,105,3.0,-999.0,96,-99.99,,,-99.99,,2013-03-24 06:42:00,
2013-03-23 20:51:00,66.0,65.0,30.04,East,96,2.0,-999.0,96,-99.99,,,-99.99,,2013-03-24 06:51:00,
2013-03-23 21:02:00,66.0,65.0,30.04,ESE,109,2.0,-999.0,96,-99.99,,,-99.99,,2013-03-24 07:02:00,
2013-03-23 21:11:00,66.0,65.0,30.04,ESE,109,2.0,-999.0,96,-99.99,,,-99.99,,2013-03-24 07:11:00,
2013-03-23 21:22:00,66.0,65.0,30.05,East,95,2.0,-999.0,96,-99.99,,,-99.99,,2013-03-24 07:22:00,
2013-03-23 21:32:00,66.0,65.0,30.05,ESE,111,2.0,-999.0,96,-99.99,,,-99.99,,2013-03-24 07:32:00,
2013-03-23 21:42:00,66.0,65.0,30.05,ESE,111,2.0,-999.0,96,-99.99,,,-99.99,,2013-03-24 07:42:00,
2013-03-23 21:52:00,66.0,65.0,30.05,ESE,111,2.0,-999.0,96,-99.99,,,-99.99,,2013-03-24 07:52:00,
2013-03-23 22:02:00,66.0,64.0,30.04,East,98,1.0,-999.0,94,-99.99,,,-99.99,,2013-03-24 08:02:00,
2013-03-23 22:12:00,66.0,64.0,30.04,East,98,1.0,-999.0,94,-99.99,,,-99.99,,2013-03-24 08:12:00,
2013-03-23 22:22:00,66.0,64.0,30.05,ESE,102,0.0,-999.0,94,-99.99,,,-99.99,,2013-03-24 08:22:00,
2013-03-23 22:32:00,66.0,65.0,30.05,East,101,0.0,-999.0,95,-99.99,,,-99.99,,2013-03-24 08:32:00,
2013-03-23 22:41:00,66.0,65.0,30.05,East,101,0.0,-999.0,95,-99.99,,,-99.99,,2013-03-24 08:41:00,
2013-03-23 22:52:00,66.0,64.0,30.05,East,92,0.0,-999.0,94,-99.99,,,-99.99,,2013-03-24 08:52:00,
2013-03-23 23:02:00,66.0,65.0,30.04,East,98,0.0,-999.0,95,-99.99,,,-99.99,,2013-03-24 09:02:00,
2013-03-23 23:12:00,66.0,65.0,30.04,East,98,0.0,-999.0,95,-99.99,,,-99.99,,2013-03-24 09:12:00,
2013-03-23 23:21:00,65.0,64.0,30.03,East,83,0.0,-999.0,95,-99.99,,,-99.99,,2013-03-24 09:21:00,
2013-03-23 23:33:00,65.0,63.0,30.01,East,82,0.0,-999.0,94,-99.99,,,-99.99,,2013-03-24 09:33:00,
2013-03-23 23:42:00,65.0,63.0,30.01,East,82,0.0,-999.0,94,-99.99,,,-99.99,,2013-03-24 09:42:00,
2013-03-23 23:52:00,65.0,63.0,30.02,East,84,0.0,-999.0,94,-99.99,,,-99.99,,2013-03-24 09:52:00,